Temp
18 19 19 20 20 20 20 21 21 22 22 22 23 23 24 24 25 25 24 23 23 22 22 22 22 21 21 21 20 20 24 24 24 25 24 23 23 22 21 21 21 19 19 18 16
18 18 19 20 20 20 20 20 21 22 22 22 23 23 24 25 25 25 25 23 23 23 22 22 22 21 20 20 20 22 25 25 26 26 25 24 24 22 22 22 20 18 18 17 17
17 18 19 19 20 20 20 20 21 21 22 22 23 24 24 25 25 26 26 23 23 23 22 22 22 21 21 21 21 22 25 24 26 25 25 24 23 23 23 23 21 19 17 16 16
17 18 19 19 20 20 20 20 20 21 22 22 23 24 25 25 26 26 25 23 23 23 23 22 22 22 23 24 21 25 24 24 25 25 24 24 23 23 23 23 21 20 19 17 17
17 17 18 19 20 20 20 20 21 21 22 22 23 24 25 25 25 26 25 24 23 23 23 23 22 23 24 24 22 26 25 26 25 24 24 24 23 23 21 20 20 19 18 18 17
16 17 18 19 20 20 20 21 21 21 22 22 23 24 24 25 25 26 26 25 24 23 24 24 23 23 23 23 24 23 25 25 25 24 24 24 23 23 20 20 20 19 19 18 18
16 17 18 19 20 20 21 21 21 21 22 23 24 24 24 24 25 25 25 25 25 24 24 24 24 24 24 23 22 24 26 26 25 24 24 24 23 24 20 20 20 20 19 18 18
17 17 18 19 20 21 21 21 22 22 22 23 24 24 24 25 25 25 24 24 25 25 24 24 24 24 24 23 24 25 25 25 25 25 23 25 24 22 21 21 21 20 19 19 19
17 17 18 20 21 21 22 22 22 22 22 23 24 24 24 25 25 25 25 25 25 25 25 24 24 25 25 26 25 25 25 25 25 26 25 26 24 22 21 21 21 20 20 20 19
17 18 18 20 21 22 22 22 22 22 23 23 24 24 25 25 25 25 25 25 25 25 25 24 25 27 26 27 26 26 26 26 26 26 26 25 25 23 22 22 22 21 21 20 20
17 18 19 20 22 23 22 22 22 23 23 23 23 24 25 25 26 26 26 26 26 26 28 25 28 28 28 27 28 27 27 27 27 26 26 26 25 24 22 22 22 22 21 21 21
17 18 19 20 22 22 22 22 21 21 23 24 24 25 25 25 26 26 26 26 26 25 26 27 28 28 27 27 27 27 27 27 27 26 27 25 25 24 23 23 23 23 22 22 22
17 18 19 20 22 22 22 22 22 22 22 24 25 25 26 26 26 26 26 26 27 25 27 27 28 27 27 26 27 27 28 27 28 26 26 26 26 24 24 23 23 23 23 22 23
17 18 19 20 21 22 22 22 23 23 23 24 24 25 26 26 26 27 26 27 26 27 25 27 25 27 28 28 28 29 27 27 26 27 27 26 28 24 24 24 23 22 22 22 22
18 19 19 20 21 21 22 23 23 23 23 24 24 25 25 27 26 26 26 27 27 26 26 27 25 26 27 27 27 27 26 26 26 27 27 26 27 25 23 24 24 24 21 21 22
18 19 20 20 21 21 22 22 23 23 22 24 24 25 26 25 26 25 26 26 25 26 25 26 24 25 27 25 25 24 26 25 25 27 27 23 26 25 23 22 22 23 23 21 21
19 20 20 20 20 21 22 22 23 22 22 24 24 25 26 26 26 26 26 26 27 25 26 26 26 25 25 27 25 26 28 27 27 27 27 22 24 23 21 21 21 21 23 20 22
19 20 20 20 20 21 21 23 20 20 21 22 22 22 25 25 25 25 25 25 23 24 24 26 26 26 26 27 27 25 28 27 25 26 26 22 24 22 19 19 19 20 21 20 19
20 19 19 19 20 20 21 22 21 20 21 22 23 23 24 24 25 25 25 26 25 24 26 25 25 25 24 25 25 24 26 23 24 20 24 23 21 21 20 18 19 19 20 19 17
20 20 19 20 20 20 21 20 20 19 21 21 22 22 24 24 25 25 24 24 24 23 22 24 25 24 24 24 23 25 22 25 24 23 23 22 21 22 20 18 19 19 17 17 16
19 19 18 19 19 20 21 20 19 19 20 22 22 22 22 23 24 24 24 23 23 22 22 24 25 24 24 23 24 24 24 21 23 22 24 23 23 19 18 17 17 16 16 15 15
19 19 19 19 19 12 20 18 19 21 20 22 21 22 23 22 22 23 24 23 20 23 25 22 25 24 23 22 21 22 22 24 26 22 21 23 21 18 17 18 17 15 14 13 12
17 17 18 19 20 19 18 19 19 21 22 21 22 21 21 22 22 21 22 20 20 22 23 22 23 23 23 24 22 23 21 19 21 22 22 23 21 18 17 17 16 16 15 14 13
16 18 17 18 15 17 18 19 20 20 20 20 22 21 21 21 19 22 21 21 19 19 18 21 20 24 26 24 23 23 22 20 23 24 23 23 18 17 17 17 15 15 14 14 14
15 13 12 17 17 15 15 16 19 19 20 19 21 22 21 20 20 21 20 20 20 18 18 22 21 20 20 20 21 20 20 21 22 21 23 22 20 18 17 17 15 14 14 14 14
12 12 12 13 12 15 15 18 17 18 18 20 19 21 21 21 23 21 21 20 22 19 19 19 19 20 20 20 21 20 20 19 19 18 19 20 19 18 15 14 14 14 14 13 13
12 12 12 12 14 16 17 17 18 17 18 19 19 20 20 20 20 19 18 17 19 21 18 18 19 20 21 18 20 20 18 18 17 17 19 19 19 16 15 15 14 13 13 12 12
Height
1521 1519 1518 1516 1515 1514 1513 1512 1512 1510 1510 1510 1509 1509 1509 1509 1509 1509 1509 1509 1510 1511 1514 1516 1517 1518 1518 1518 1518 1518 1519 1527 1526 1526 1528 1532 1533 1538 1539 1542 1545 1547 1550 1555 1558
1521 1519 1517 1515 1514 1512 1511 1511 1510 1509 1508 1508 1508 1508 1508 1508 1509 1508 1510 1509 1510 1511 1513 1515 1516 1517 1519 1519 1518 1518 1520 1522 1519 1521 1526 1531 1534 1537 1541 1544 1548 1549 1552 1555 1559
1521 1518 1516 1514 1513 1511 1510 1509 1509 1508 1507 1507 1506 1507 1507 1508 1509 1508 1510 1511 1512 1513 1514 1516 1517 1517 1517 1518 1518 1518 1520 1520 1519 1522 1525 1531 1536 1539 1541 1544 1548 1549 1553 1557 1561
1520 1517 1515 1513 1511 1510 1508 1508 1507 1506 1506 1506 1505 1506 1507 1508 1511 1508 1510 1510 1512 1514 1516 1517 1517 1518 1518 1517 1518 1517 1520 1519 1520 1522 1526 1530 1535 1539 1542 1543 1546 1550 1553 1557 1561
1520 1517 1515 1512 1510 1508 1507 1507 1506 1505 1505 1504 1505 1506 1507 1508 1509 1509 1510 1510 1513 1516 1517 1517 1517 1518 1517 1517 1518 1517 1519 1519 1522 1525 1529 1532 1536 1539 1543 1543 1547 1553 1557 1560 1563
1519 1517 1514 1511 1509 1507 1506 1505 1505 1504 1504 1504 1504 1505 1507 1509 1508 1509 1510 1511 1513 1516 1517 1518 1518 1518 1518 1518 1517 1520 1520 1521 1525 1527 1531 1533 1538 1540 1547 1548 1551 1556 1559 1562 1565
1519 1516 1513 1510 1508 1506 1505 1504 1504 1503 1503 1503 1504 1505 1508 1510 1508 1509 1510 1512 1513 1516 1518 1519 1518 1519 1517 1519 1520 1522 1522 1522 1528 1530 1533 1534 1541 1542 1547 1551 1554 1558 1561 1564 1566
1518 1515 1512 1509 1507 1505 1504 1503 1502 1502 1502 1503 1504 1506 1508 1509 1509 1510 1511 1512 1514 1516 1517 1518 1518 1519 1518 1519 1523 1524 1526 1533 1529 1530 1535 1534 1543 1544 1548 1551 1555 1559 1562 1565 1567
1517 1514 1511 1508 1506 1504 1503 1502 1501 1501 1502 1503 1505 1506 1509 1509 1510 1511 1512 1514 1515 1516 1516 1516 1518 1519 1521 1522 1527 1528 1534 1533 1531 1529 1532 1535 1542 1545 1548 1552 1555 1559 1562 1565 1568
1516 1513 1510 1508 1506 1504 1503 1503 1502 1502 1503 1504 1505 1509 1510 1510 1510 1511 1513 1514 1516 1516 1517 1517 1518 1518 1520 1522 1535 1530 1531 1530 1528 1527 1530 1534 1537 1543 1548 1550 1553 1558 1561 1565 1566
1515 1512 1509 1507 1505 1504 1503 1503 1506 1506 1504 1504 1504 1505 1506 1508 1509 1510 1512 1513 1514 1515 1514 1517 1517 1520 1517 1517 1516 1519 1523 1526 1523 1524 1528 1531 1536 1540 1545 1550 1554 1557 1560 1563 1564
1514 1511 1508 1506 1505 1504 1503 1503 1504 1506 1504 1502 1503 1503 1504 1505 1507 1509 1512 1514 1514 1516 1516 1518 1518 1514 1515 1516 1518 1519 1524 1524 1523 1523 1525 1531 1534 1537 1541 1543 1548 1553 1557 1560 1564
1512 1509 1506 1505 1504 1504 1503 1504 1503 1503 1503 1502 1502 1502 1503 1504 1505 1507 1511 1511 1512 1516 1515 1516 1514 1514 1514 1516 1518 1520 1521 1522 1522 1525 1528 1529 1534 1538 1541 1545 1549 1552 1556 1559 1561
1510 1507 1504 1503 1505 1502 1503 1503 1502 1502 1506 1501 1500 1500 1501 1502 1504 1505 1507 1510 1511 1512 1515 1514 1513 1512 1512 1515 1513 1519 1517 1518 1522 1524 1533 1530 1538 1539 1538 1542 1545 1551 1554 1557 1559
1507 1504 1502 1502 1501 1502 1503 1502 1503 1503 1525 1499 1497 1496 1497 1501 1502 1503 1505 1507 1509 1512 1514 1514 1514 1514 1514 1514 1514 1521 1519 1521 1525 1527 1530 1538 1539 1538 1537 1540 1543 1548 1553 1556 1559
1504 1500 1498 1499 1499 1501 1502 1502 1504 1511 1523 1497 1494 1495 1497 1499 1501 1503 1505 1507 1509 1511 1514 1514 1514 1514 1512 1515 1515 1520 1522 1528 1531 1530 1540 1547 1543 1542 1543 1547 1545 1545 1549 1553 1556
1500 1496 1495 1496 1498 1499 1501 1503 1511 1518 1502 1500 1496 1494 1494 1497 1500 1501 1504 1507 1509 1520 1519 1514 1513 1514 1513 1516 1519 1519 1519 1536 1542 1542 1540 1549 1550 1545 1545 1544 1543 1541 1543 1549 1555
1497 1494 1493 1494 1496 1498 1501 1505 1521 1510 1506 1498 1498 1498 1497 1496 1498 1501 1504 1508 1511 1512 1519 1517 1526 1513 1514 1513 1515 1524 1518 1531 1555 1548 1542 1548 1548 1547 1548 1546 1543 1537 1540 1547 1553
1496 1494 1494 1494 1495 1497 1501 1508 1508 1510 1505 1503 1498 1498 1498 1497 1497 1500 1501 1503 1504 1507 1514 1519 1521 1515 1516 1515 1516 1526 1527 1532 1541 1558 1546 1548 1550 1547 1548 1548 1544 1543 1545 1550 1553
1496 1495 1494 1494 1495 1498 1500 1506 1505 1505 1504 1503 1506 1502 1499 1497 1497 1500 1504 1502 1504 1506 1508 1511 1523 1518 1518 1516 1520 1518 1529 1533 1538 1556 1555 1552 1552 1545 1549 1551 1549 1549 1551 1553 1554
1496 1496 1498 1497 1497 1499 1500 1504 1505 1502 1503 1502 1503 1503 1502 1500 1497 1499 1500 1503 1502 1506 1508 1508 1509 1523 1518 1523 1522 1526 1527 1539 1537 1543 1541 1549 1546 1551 1553 1552 1551 1551 1552 1554 1556
1496 1498 1498 1498 1500 1505 1502 1505 1504 1502 1502 1501 1501 1499 1499 1499 1501 1500 1498 1500 1502 1503 1504 1508 1509 1524 1526 1526 1527 1525 1529 1526 1526 1547 1546 1539 1549 1553 1554 1554 1554 1555 1557 1559 1557
1499 1500 1500 1500 1502 1502 1504 1502 1502 1499 1499 1498 1498 1498 1498 1498 1503 1502 1499 1501 1502 1503 1503 1505 1516 1529 1531 1526 1526 1526 1531 1535 1534 1532 1540 1538 1548 1554 1556 1557 1558 1558 1560 1560 1562
1503 1501 1502 1501 1504 1505 1505 1501 1500 1497 1496 1495 1494 1494 1496 1498 1500 1499 1502 1501 1502 1503 1504 1505 1516 1512 1517 1521 1522 1528 1529 1533 1528 1529 1532 1530 1549 1553 1555 1557 1561 1562 1562 1563 1563
1506 1509 1509 1506 1505 1508 1508 1505 1500 1498 1493 1492 1490 1489 1492 1499 1499 1497 1501 1501 1503 1504 1505 1505 1519 1523 1526 1526 1526 1531 1534 1532 1529 1530 1528 1531 1539 1546 1553 1557 1561 1563 1563 1564 1564
1509 1511 1509 1509 1509 1507 1506 1502 1500 1496 1496 1489 1489 1487 1488 1490 1483 1489 1490 1496 1496 1504 1507 1511 1526 1524 1529 1529 1528 1535 1534 1534 1536 1538 1536 1535 1544 1549 1556 1559 1561 1562 1562 1563 1563
1511 1510 1511 1510 1509 1506 1505 1503 1498 1497 1490 1488 1486 1485 1486 1489 1487 1488 1490 1492 1496 1501 1510 1515 1522 1525 1532 1536 1533 1537 1540 1538 1538 1539 1535 1538 1537 1549 1556 1559 1560 1561 1561 1561 1561
Wind_Speed
10 10 10 10 10 10 9 8 8 9 8 7 6 3 1 1 3 4 3 3 10 10 9 8 3 6 5 2 2 1 2 4 4 8 7 13 7 5 7 17 6 3 17 19 23
12 11 10 10 10 10 8 8 8 9 8 6 5 2 1 2 4 5 4 12 15 13 10 7 3 8 3 2 1 1 3 2 4 7 11 14 12 8 10 13 10 18 20 24 23
13 12 10 9 10 9 8 7 8 9 7 5 3 0 3 4 7 3 7 11 13 11 11 6 5 3 3 1 3 1 2 3 3 11 21 16 14 5 18 8 11 24 24 22 20
15 14 12 9 9 9 8 7 8 8 6 4 1 2 5 8 3 5 12 10 8 6 8 3 0 2 3 3 2 3 3 1 5 13 17 16 14 12 5 3 16 23 25 22 19
16 15 13 11 9 8 7 7 7 7 5 2 1 4 7 6 4 5 12 11 10 8 2 3 2 1 3 3 1 4 5 7 11 16 16 15 10 12 6 10 22 24 21 19 16
17 16 14 12 10 8 7 7 6 6 4 1 4 6 7 4 5 8 11 11 10 8 2 3 3 3 6 3 3 5 6 8 11 15 13 12 9 8 7 18 25 22 19 17 15
18 16 15 13 11 9 7 6 6 5 2 2 6 7 7 4 6 8 8 5 4 3 3 4 3 4 1 4 4 5 8 8 9 10 5 18 7 3 17 21 22 20 17 15 15
19 18 16 14 11 8 7 6 4 2 1 4 7 8 4 4 5 8 9 6 7 6 7 7 3 2 3 7 4 4 1 3 5 8 9 5 3 11 20 23 20 18 16 15 16
20 18 17 14 10 7 6 4 3 2 4 6 8 6 5 3 3 5 6 4 4 3 5 5 1 3 4 3 2 1 1 4 6 5 8 6 5 15 22 21 20 19 17 16 15
22 19 16 14 9 6 5 3 4 4 6 7 6 4 5 5 4 6 6 8 3 2 6 3 2 2 3 5 3 5 3 4 5 9 9 8 5 16 21 22 21 20 18 17 17
22 20 15 12 8 5 4 3 1 2 4 2 3 1 1 2 4 8 9 8 4 1 1 2 4 6 9 10 6 3 2 2 2 7 9 9 7 15 21 19 18 19 18 18 19
22 20 14 10 5 4 6 5 7 1 1 5 6 8 7 2 5 10 10 6 4 3 2 3 6 3 4 7 11 10 7 7 1 6 8 7 6 12 22 23 22 21 20 20 18
21 20 13 9 0 5 5 5 6 4 0 4 8 7 5 8 6 10 12 8 4 4 4 5 1 3 3 3 8 4 8 5 3 8 3 6 4 10 12 15 17 18 19 19 19
21 20 14 5 3 6 6 3 5 3 2 3 5 5 8 6 2 8 12 6 2 5 4 3 2 3 6 4 3 5 1 6 11 10 3 3 1 3 6 15 19 17 16 20 20
21 19 14 5 3 9 6 2 5 2 2 2 3 4 11 9 4 6 12 9 5 5 3 2 1 2 4 2 4 4 5 5 4 4 3 3 4 3 2 8 13 19 20 19 16
21 20 13 5 7 11 6 4 5 1 5 1 3 4 6 2 3 3 4 5 4 3 1 1 1 1 2 4 4 10 6 5 3 1 5 2 3 3 5 7 7 11 19 21 18
21 16 8 2 7 12 9 10 2 4 3 1 2 3 8 7 6 3 5 7 6 4 4 0 2 0 1 4 4 2 5 2 4 6 6 2 4 4 9 8 11 16 16 21 23
20 11 2 4 10 10 9 2 4 1 4 3 2 1 9 7 5 4 6 7 2 3 2 7 6 1 1 0 4 2 2 5 6 6 2 3 3 3 7 7 9 6 15 20 17
13 6 5 2 10 11 7 6 2 3 3 7 3 3 5 3 2 3 6 6 6 9 5 5 2 3 6 2 3 5 3 3 5 2 3 2 3 5 6 9 8 9 15 15 14
7 4 11 3 8 8 2 5 3 4 2 1 3 3 5 7 8 7 7 3 6 6 2 5 5 2 2 0 14 1 8 3 1 6 6 3 2 1 7 7 4 9 10 11 12
3 3 5 8 6 3 5 3 4 7 3 1 0 3 2 1 5 7 8 2 3 4 3 5 2 4 2 5 3 4 3 5 4 2 3 4 3 2 1 3 4 9 10 10 12
3 2 0 4 2 2 2 2 2 3 3 3 2 6 4 2 3 5 10 1 3 8 7 2 4 4 5 3 2 2 3 2 4 5 0 3 3 2 3 7 13 17 17 18 21
4 3 6 3 2 2 1 2 3 3 7 4 6 6 4 5 3 2 4 1 5 4 6 8 2 6 4 3 2 2 3 3 4 2 6 4 4 6 10 12 14 18 18 18 19
5 1 4 4 5 1 2 2 3 4 7 7 5 5 4 4 2 5 4 2 4 4 6 4 4 2 7 3 3 5 3 3 3 4 6 4 11 12 11 13 14 13 13 13 14
6 2 2 2 3 3 1 3 4 5 5 3 5 15 7 5 4 6 3 5 4 2 4 2 4 4 7 5 5 6 4 2 4 2 5 7 16 16 13 14 13 11 10 10 11
3 3 3 1 3 1 1 1 4 5 4 4 9 2 14 8 7 13 10 3 3 4 3 3 4 4 4 6 4 4 5 3 3 4 4 12 12 10 13 12 10 8 8 9 9
7 5 2 3 2 1 3 5 5 7 7 11 9 5 8 4 7 14 9 13 8 4 4 3 6 2 4 3 2 4 4 3 2 2 7 8 7 19 13 11 8 6 5 7 9
Wind_Direction
351 344 336 330 326 324 326 332 330 323 325 327 315 327 345 85 104 119 125 125 152 140 137 132 89 147 134 68 88 136 72 97 130 159 140 146 124 109 111 128 91 73 140 147 149
359 352 343 334 327 325 326 332 330 323 326 327 311 333 110 115 129 168 98 128 146 155 157 141 167 160 131 102 14 21 85 110 175 168 156 153 142 128 139 134 92 104 127 146 151
4 359 350 340 329 327 325 330 331 326 327 326 310 353 141 124 129 186 126 146 122 153 160 136 114 153 88 69 29 85 79 331 313 170 149 140 142 124 151 158 145 142 145 153 158
5 2 357 348 334 327 321 326 330 328 326 325 295 159 136 128 148 141 149 140 173 120 114 180 257 161 91 87 21 107 68 130 122 148 146 144 140 126 150 161 164 156 153 156 162
3 1 358 350 339 327 320 323 327 327 325 317 160 152 137 112 110 144 157 168 189 193 170 48 85 155 94 102 113 112 39 73 141 136 133 130 125 123 51 107 144 150 152 156 159
360 358 355 350 342 332 323 323 324 322 320 279 150 153 132 114 106 144 161 170 184 189 212 48 20 52 91 77 32 26 42 74 124 129 135 120 120 125 118 133 141 151 158 162 164
355 354 351 347 346 337 327 323 317 311 302 194 150 148 110 113 98 147 171 187 204 220 265 357 7 18 133 125 55 58 102 85 117 133 117 122 130 111 151 152 152 159 165 172 173
354 350 347 346 352 345 338 331 318 285 167 163 150 139 96 97 124 151 163 186 210 245 275 312 221 347 26 101 44 56 46 121 140 158 149 213 121 145 160 162 168 167 174 184 188
355 349 346 346 359 1 14 26 78 115 134 145 145 136 125 128 154 154 167 186 227 291 314 266 116 75 115 121 109 103 165 200 165 172 157 209 134 165 168 173 177 178 184 191 195
356 350 346 346 2 18 11 82 82 97 128 130 146 146 156 133 160 193 176 198 219 260 116 123 103 143 145 185 197 184 200 190 213 181 177 183 120 165 177 177 183 186 191 196 203
354 352 347 345 3 50 75 108 15 82 179 194 156 153 182 159 171 183 181 188 201 151 135 68 205 197 203 215 240 175 213 239 232 174 179 195 165 177 179 189 188 194 196 202 209
350 351 348 341 360 108 90 95 71 50 311 236 237 252 258 223 156 173 173 168 169 157 162 194 233 212 195 252 237 236 255 267 212 165 210 176 191 178 187 196 193 194 201 208 216
346 347 350 334 321 148 120 80 26 30 279 244 226 250 253 186 180 178 176 166 145 154 189 225 125 279 207 161 175 207 230 205 159 143 111 157 196 176 202 203 210 212 208 211 215
342 341 343 333 185 164 147 35 19 91 49 233 212 226 195 163 203 204 195 170 121 203 179 248 308 275 162 149 172 120 33 152 147 166 180 319 133 112 197 206 207 211 216 217 223
339 335 333 315 223 171 171 95 120 56 281 97 180 194 172 179 139 176 181 188 165 156 201 134 92 149 198 103 209 106 76 79 136 117 175 92 245 56 42 215 216 212 217 229 227
338 329 324 299 204 178 172 144 132 82 245 121 163 163 156 141 124 120 163 160 130 139 67 287 268 270 89 53 52 140 98 76 79 133 236 44 267 117 21 329 295 258 217 216 226
340 330 326 245 184 181 175 154 153 212 342 63 179 180 181 175 177 163 162 172 190 175 206 183 128 319 149 113 88 170 170 211 225 218 254 5 203 57 342 339 307 288 222 195 210
346 335 312 182 186 183 171 147 215 334 265 348 2 105 200 164 186 144 149 168 119 106 155 188 172 129 37 119 159 125 243 231 246 238 203 128 216 57 4 -0 346 339 176 168 161
356 42 55 179 182 181 169 195 228 197 326 335 317 190 182 188 185 158 185 196 192 181 213 163 137 71 29 103 315 134 176 37 114 59 225 143 129 222 46 26 49 94 137 135 127
1 41 26 85 170 167 149 191 175 216 306 351 344 352 221 178 178 193 182 172 174 195 231 171 137 57 117 320 49 15 131 166 113 181 227 165 208 270 354 4 71 103 107 100 97
29 83 75 72 122 144 205 211 220 234 234 310 101 329 327 327 222 178 180 150 180 143 160 155 195 126 192 21 144 144 149 66 106 300 230 193 172 358 57 69 100 79 77 84 100
39 77 129 18 60 38 135 194 224 249 201 273 265 233 246 225 192 198 185 262 160 162 165 140 101 97 106 68 74 67 99 185 241 186 113 304 134 46 92 115 115 100 89 93 93
20 40 33 26 75 27 319 270 241 243 242 219 244 232 192 160 219 202 167 102 166 175 163 178 92 125 144 166 164 108 95 104 117 158 184 214 142 143 130 118 116 111 101 92 87
7 43 35 70 75 9 355 279 272 272 257 236 242 174 172 178 200 174 183 117 134 104 85 105 93 208 214 107 108 152 122 127 231 219 163 210 151 170 152 131 122 108 97 88 81
22 58 18 23 64 4 326 311 295 295 238 220 225 231 196 176 156 182 173 143 84 103 66 63 97 96 75 85 91 85 51 335 229 246 241 158 174 168 156 142 127 114 100 80 59
46 8 352 353 316 241 242 248 283 312 248 276 239 288 203 212 195 184 158 173 162 78 72 24 111 117 84 64 115 96 56 80 68 141 69 153 150 158 149 139 134 116 91 63 42
20 2 8 12 338 241 9 321 288 317 247 252 266 217 193 245 99 96 94 89 100 109 107 75 135 138 137 33 154 220 359 303 160 204 161 174 165 155 157 158 154 138 95 49 24